N6OIL Weather Reports


Display with metric or nautical units.
time (UTC)temp
F
wind
direction
speed
MPH
gust
MPH
rain 1hr
in
rain 24hr
in
rain mn
in
humidity
%
barometer
mb
20260905091204 58 317 4.0 5.0 0.00 0.00 0.00 55 1015.2
20260905090704 57 316 4.0 6.0 0.00 0.00 0.00 56 1015.2
20260905090204 57 316 4.0 6.0 0.00 0.00 0.00 56 1015.3
20260905085704 58 316 4.0 5.0 0.00 0.00 0.00 56 1015.4
20260905085204 57 316 4.0 8.0 0.00 0.00 0.00 56 1015.4
20260905084205 57 316 5.0 9.0 0.00 0.00 0.00 56 1015.5
20260905083704 56 316 5.0 8.0 0.00 0.00 0.00 57 1015.5
20260905083204 56 258 3.0 5.0 0.00 0.00 0.00 56 1015.5
20260905082204 56 250 3.0 5.0 0.00 0.00 0.00 56 1015.6
20260905081704 56 250 3.0 5.0 0.00 0.00 0.00 56 1015.7
20260905081205 56 145 2.0 4.0 0.00 0.00 0.00 56 1015.7
20260905080704 56 145 2.0 4.0 0.00 0.00 0.00 56 1015.6
20260905075704 57 145 3.0 5.0 0.00 0.00 0.00 57 1015.6
20260905075204 57 145 3.0 5.0 0.00 0.00 0.00 57 1015.7
20260905074704 57 145 3.0 5.0 0.00 0.00 0.00 56 1015.7
20260905074205 58 145 4.0 5.0 0.00 0.00 0.00 55 1015.7
20260905073204 58 145 4.0 5.0 0.00 0.00 0.00 54 1015.7
20260905072206 59 145 3.0 4.0 0.00 0.00 0.00 51 1015.7
20260905071704 59 145 3.0 4.0 0.00 0.00 0.00 50 1015.7
20260905071204 59 145 2.0 3.0 0.00 0.00 0.00 49 1015.7
20260905070704 60 145 2.0 3.0 0.00 0.00 0.00 49 1015.7
20260905070205 60 145 2.0 3.0 0.00 0.00 0.00 49 1015.6
20260905065704 60 145 2.0 4.0 0.00 0.00 0.00 48 1015.6
20260905065204 60 145 2.0 4.0 0.00 0.00 0.00 48 1015.7
20260905064704 60 145 3.0 4.0 0.00 0.00 0.00 48 1015.7
20260905064206 60 145 3.0 4.0 0.00 0.00 0.00 47 1015.7
20260905062704 62 145 2.0 3.0 0.00 0.00 0.00 45 1015.7
20260905062206 62 145 2.0 4.0 0.00 0.00 0.00 45 1015.7
20260905061704 62 145 2.0 4.0 0.00 0.00 0.00 45 1015.7
20260905061204 62 145 2.0 4.0 0.00 0.00 0.00 45 1015.6
20260905055705 64 145 1.0 2.0 0.00 0.00 0.00 44 1015.6
20260905055204 64 145 1.0 3.0 0.00 0.00 0.00 45 1015.6
20260905054704 64 145 1.0 3.0 0.00 0.00 0.00 45 1015.6
20260905054206 64 145 1.0 3.0 0.00 0.00 0.00 45 1015.6
20260905053704 64 145 1.0 2.0 0.00 0.00 0.00 46 1015.5
20260905053204 64 145 1.0 2.0 0.00 0.00 0.00 46 1015.5
20260905051705 64 145 2.0 3.0 0.00 0.00 0.00 47 1015.5
20260905051204 65 145 1.0 3.0 0.00 0.00 0.00 45 1015.5
20260905050704 65 145 1.0 2.0 0.00 0.00 0.00 45 1015.4
20260905050205 66 145 1.0 2.0 0.00 0.00 0.00 44 1015.4
20260905045704 66 145 0.0 3.0 0.00 0.00 0.00 44 1015.4
20260905044704 67 145 2.0 4.0 0.00 0.00 0.00 44 1015.3
20260905044205 67 145 2.0 4.0 0.00 0.00 0.00 44 1015.2
20260905043704 67 145 1.0 3.0 0.00 0.00 0.00 44 1015.1
20260905043204 68 145 1.0 3.0 0.00 0.00 0.00 43 1015.1
20260905042704 68 145 1.0 2.0 0.00 0.00 0.00 43 1015.0
20260905042206 69 145 1.0 2.0 0.00 0.00 0.00 42 1014.9
20260905041704 69 145 1.0 2.0 0.00 0.00 0.00 42 1014.9
20260905041204 69 145 1.0 2.0 0.00 0.00 0.00 41 1014.9
20260905040704 69 145 1.0 2.0 0.00 0.00 0.00 40 1014.9
20260905035704 70 145 1.0 2.0 0.00 0.00 0.00 39 1014.7
20260905035204 71 145 1.0 6.0 0.00 0.00 0.00 39 1014.7
20260905034704 71 145 1.0 11.0 0.00 0.00 0.00 38 1014.6
20260905034205 72 145 3.0 11.0 0.00 0.00 0.00 37 1014.6
20260905033704 72 145 6.0 12.0 0.00 0.00 0.00 35 1014.6
20260905033204 72 14 7.0 12.0 0.00 0.00 0.00 32 1014.5
20260905032704 72 333 7.0 13.0 0.00 0.00 0.00 31 1014.4
20260905032206 72 340 7.0 13.0 0.00 0.00 0.00 31 1014.3
20260905031704 72 25 8.0 13.0 0.00 0.00 0.00 31 1014.2
20260905031204 72 22 8.0 20.0 0.00 0.00 0.00 30 1014.1
20260905025704 73 313 14.0 22.0 0.00 0.00 0.00 34 1013.9
20260905025204 73 291 14.0 22.0 0.00 0.00 0.00 34 1013.5
20260905024206 73 328 15.0 22.0 0.00 0.00 0.00 32 1013.4
20260905023704 73 315 15.0 26.0 0.00 0.00 0.00 30 1013.4
20260905021704 74 296 16.0 25.0 0.00 0.00 0.00 29 1013.3
20260905021205 74 301 15.0 23.0 0.00 0.00 0.00 28 1013.3
20260905020206 75 311 15.0 24.0 0.00 0.00 0.00 27 1013.3
20260905015704 75 314 15.0 25.0 0.00 0.00 0.00 27 1013.3
20260905015205 75 299 16.0 25.0 0.00 0.00 0.00 27 1013.3
20260905014705 75 288 16.0 25.0 0.00 0.00 0.00 28 1013.3
20260905014204 76 303 16.0 24.0 0.00 0.00 0.00 28 1013.2
20260905013204 76 326 15.0 24.0 0.00 0.00 0.00 29 1013.2
20260905012705 76 327 14.0 23.0 0.00 0.00 0.00 30 1013.3
20260905011204 77 301 15.0 24.0 0.00 0.00 0.00 29 1013.2
20260905010704 77 316 16.0 24.0 0.00 0.00 0.00 30 1013.2
20260905010204 77 308 16.0 26.0 0.00 0.00 0.00 30 1013.2
20260905005704 78 309 16.0 26.0 0.00 0.00 0.00 30 1013.2
20260905005204 78 302 17.0 26.0 0.00 0.00 0.00 29 1013.1
20260905004704 78 331 16.0 26.0 0.00 0.00 0.00 29 1013.1
20260905004204 79 309 15.0 22.0 0.00 0.00 0.00 28 1013.2
20260905003704 79 322 15.0 25.0 0.00 0.00 0.00 28 1013.1
20260905002705 78 337 17.0 25.0 0.00 0.00 0.00 29 1013.1
20260905002204 78 319 18.0 25.0 0.00 0.00 0.00 29 1013.1
20260905001204 80 315 15.0 23.0 0.00 0.00 0.00 29 1013.1
20260905000704 80 312 14.0 21.0 0.00 0.00 0.00 29 1013.1
20260905000204 80 325 14.0 23.0 0.00 0.00 0.00 29 1013.1
20260904235205 80 298 15.0 25.0 0.00 0.00 0.00 29 1013.1
20260904234704 80 303 16.0 22.0 0.00 0.00 0.00 29 1013.1
20260904234206 80 294 15.0 22.0 0.00 0.00 0.00 29 1013.1
20260904233704 80 309 15.0 24.0 0.00 0.00 0.00 29 1013.1
20260904233204 80 294 16.0 24.0 0.00 0.00 0.00 30 1013.1
20260904232704 80 296 16.0 24.0 0.00 0.00 0.00 31 1013.1
20260904232206 81 296 16.0 22.0 0.00 0.00 0.00 30 1013.1
20260904231704 81 294 16.0 22.0 0.00 0.00 0.00 30 1013.1
20260904231204 81 311 15.0 22.0 0.00 0.00 0.00 30 1013.1
20260904230704 82 301 15.0 21.0 0.00 0.00 0.00 30 1013.1
20260904230206 81 294 15.0 22.0 0.00 0.00 0.00 30 1013.1
20260904225705 82 296 15.0 22.0 0.00 0.00 0.00 30 1013.2
20260904225204 81 308 15.0 22.0 0.00 0.00 0.00 29 1013.3
20260904223705 82 302 14.0 22.0 0.00 0.00 0.00 28 1013.3
20260904223204 82 285 15.0 22.0 0.00 0.00 0.00 28 1013.3
20260904222704 82 304 15.0 22.0 0.00 0.00 0.00 27 1013.3
20260904222206 82 322 15.0 22.0 0.00 0.00 0.00 27 1013.3
20260904221704 82 286 15.0 22.0 0.00 0.00 0.00 26 1013.3
20260904221204 82 305 15.0 22.0 0.00 0.00 0.00 26 1013.3
20260904220704 82 313 15.0 21.0 0.00 0.00 0.00 25 1013.3
20260904220205 82 329 14.0 21.0 0.00 0.00 0.00 25 1013.4
20260904215704 82 317 14.0 22.0 0.00 0.00 0.00 25 1013.5
20260904215204 82 313 14.0 22.0 0.00 0.00 0.00 25 1013.5
20260904214704 82 318 14.0 22.0 0.00 0.00 0.00 24 1013.5
20260904214206 82 293 14.0 19.0 0.00 0.00 0.00 24 1013.5
20260904213704 82 315 14.0 19.0 0.00 0.00 0.00 24 1013.6
20260904213204 82 286 13.0 18.0 0.00 0.00 0.00 23 1013.6
20260904212704 82 331 11.0 18.0 0.00 0.00 0.00 23 1013.5
20260904212206 82 295 10.0 19.0 0.00 0.00 0.00 23 1013.6
20260904211704 81 267 12.0 19.0 0.00 0.00 0.00 23 1013.8
20260904211204 82 302 11.0 19.0 0.00 0.00 0.00 23 1013.8
20260904210705 82 309 9.0 16.0 0.00 0.00 0.00 23 1013.6
20260904205204 82 329 4.0 14.0 0.00 0.00 0.00 22 1013.8
20260904204704 82 319 6.0 14.0 0.00 0.00 0.00 22 1013.8
20260904204205 82 295 7.0 14.0 0.00 0.00 0.00 22 1013.8
20260904203704 81 320 6.0 14.0 0.00 0.00 0.00 23 1013.9
20260904203204 81 277 8.0 14.0 0.00 0.00 0.00 23 1014.0
20260904202205 81 294 8.0 14.0 0.00 0.00 0.00 23 1014.0
20260904201704 81 313 8.0 14.0 0.00 0.00 0.00 23 1014.0
20260904201204 81 266 7.0 14.0 0.00 0.00 0.00 23 1014.1
20260904200704 81 293 8.0 14.0 0.00 0.00 0.00 23 1014.1
20260904200205 81 344 9.0 15.0 0.00 0.00 0.00 23 1014.2
20260904195704 80 254 10.0 15.0 0.00 0.00 0.00 23 1014.2
20260904194704 81 286 10.0 15.0 0.00 0.00 0.00 23 1014.3
20260904194206 81 277 9.0 15.0 0.00 0.00 0.00 23 1014.3
20260904192704 80 291 6.0 10.0 0.00 0.00 0.00 24 1014.4
20260904192206 80 301 4.0 10.0 0.00 0.00 0.00 21 1014.5
20260904191704 81 268 4.0 10.0 0.00 0.00 0.00 21 1014.5
20260904191205 81 306 3.0 10.0 0.00 0.00 0.00 21 1014.6
20260904190704 80 240 3.0 10.0 0.00 0.00 0.00 23 1014.6
20260904190206 79 240 4.0 10.0 0.00 0.00 0.00 23 1014.6
20260904184704 79 223 5.0 11.0 0.00 0.00 0.00 23 1014.7
20260904183704 78 267 4.0 11.0 0.00 0.00 0.00 24 1014.6
20260904183204 78 275 5.0 12.0 0.00 0.00 0.00 23 1014.6
20260904182705 78 301 6.0 12.0 0.00 0.00 0.00 24 1014.7
20260904181704 77 248 7.0 11.0 0.00 0.00 0.00 24 1014.9
20260904181204 78 250 6.0 10.0 0.00 0.00 0.00 24 1014.9
20260904180704 77 275 6.0 10.0 0.00 0.00 0.00 25 1014.9
20260904180206 78 358 5.0 9.0 0.00 0.00 0.00 24 1014.9
20260904175704 78 266 3.0 9.0 0.00 0.00 0.00 23 1015.0
20260904174705 77 303 4.0 9.0 0.00 0.00 0.00 24 1015.0
20260904174204 77 302 5.0 9.0 0.00 0.00 0.00 25 1015.0
20260904173704 77 275 5.0 9.0 0.00 0.00 0.00 25 1015.0
20260904173204 77 261 4.0 9.0 0.00 0.00 0.00 24 1014.9
20260904172704 76 283 3.0 9.0 0.00 0.00 0.00 24 1014.9
20260904172204 76 305 3.0 9.0 0.00 0.00 0.00 25 1014.9
20260904171704 76 286 4.0 10.0 0.00 0.00 0.00 25 1014.9
20260904170704 75 288 5.0 10.0 0.00 0.00 0.00 26 1014.9
20260904170204 75 348 5.0 9.0 0.00 0.00 0.00 26 1014.7
20260904165704 75 272 4.0 11.0 0.00 0.00 0.00 26 1014.7
20260904165204 74 266 5.0 11.0 0.00 0.00 0.00 26 1014.6
20260904164704 74 259 6.0 11.0 0.00 0.00 0.00 27 1014.6
20260904164206 74 319 5.0 11.0 0.00 0.00 0.00 28 1014.5
20260904163704 74 323 6.0 10.0 0.00 0.00 0.00 28 1014.5
20260904163204 73 288 6.0 11.0 0.00 0.00 0.00 29 1014.4
20260904162704 73 282 7.0 11.0 0.00 0.00 0.00 30 1014.4
20260904162206 73 321 7.0 11.0 0.00 0.00 0.00 30 1014.3
20260904161204 71 358 8.0 13.0 0.00 0.00 0.00 34 1014.4
20260904160704 71 306 9.0 13.0 0.00 0.00 0.00 36 1014.4
20260904160206 70 338 9.0 15.0 0.00 0.00 0.00 38 1014.3
20260904155204 69 358 11.0 17.0 0.00 0.00 0.00 39 1014.4
20260904154704 69 315 11.0 18.0 0.00 0.00 0.00 40 1014.4
20260904154205 68 320 11.0 18.0 0.00 0.00 0.00 42 1014.4
20260904153704 67 282 12.0 18.0 0.00 0.00 0.00 43 1014.3
20260904153204 67 318 12.0 17.0 0.00 0.00 0.00 44 1014.3
20260904152704 67 312 11.0 17.0 0.00 0.00 0.00 45 1014.3
20260904152206 67 322 11.0 19.0 0.00 0.00 0.00 46 1014.2
20260904151204 66 317 11.0 19.0 0.00 0.00 0.00 50 1014.2
20260904150704 65 325 12.0 17.0 0.00 0.00 0.00 51 1014.2
20260904150206 65 306 12.0 16.0 0.00 0.00 0.00 52 1014.2
20260904145704 65 311 10.0 15.0 0.00 0.00 0.00 53 1014.1
20260904145204 65 307 11.0 15.0 0.00 0.00 0.00 54 1014.1
20260904144704 64 321 11.0 14.0 0.00 0.00 0.00 55 1014.0
20260904144206 64 312 9.0 14.0 0.00 0.00 0.00 57 1014.0
20260904143705 63 319 8.0 14.0 0.00 0.00 0.00 58 1013.9
20260904143204 63 314 9.0 15.0 0.00 0.00 0.00 59 1013.9
20260904142705 62 318 10.0 15.0 0.00 0.00 0.00 60 1013.9
20260904142205 62 314 10.0 15.0 0.00 0.00 0.00 61 1013.8
20260904141704 61 309 9.0 13.0 0.00 0.00 0.00 62 1013.8
20260904141204 61 315 9.0 13.0 0.00 0.00 0.00 63 1013.8
20260904140704 60 323 9.0 15.0 0.00 0.00 0.00 65 1013.6
20260904140204 60 320 10.0 16.0 0.00 0.00 0.00 66 1013.6
20260904135704 60 317 11.0 16.0 0.00 0.00 0.00 67 1013.6
20260904135204 59 306 11.0 16.0 0.00 0.00 0.00 68 1013.5
20260904134703 59 315 11.0 16.0 0.00 0.00 0.00 68 1013.5
20260904134205 59 328 12.0 16.0 0.00 0.00 0.00 68 1013.4
20260904133704 59 313 12.0 16.0 0.00 0.00 0.00 68 1013.4
20260904133204 59 312 11.0 16.0 0.00 0.00 0.00 67 1013.4
20260904132704 60 325 12.0 16.0 0.00 0.00 0.00 67 1013.4
20260904132205 60 323 11.0 16.0 0.00 0.00 0.00 66 1013.5
20260904131705 60 332 9.0 12.0 0.00 0.00 0.00 66 1013.4
20260904130704 59 333 6.0 10.0 0.00 0.00 0.00 66 1013.4
20260904130204 59 334 5.0 9.0 0.00 0.00 0.00 66 1013.4
20260904125704 59 342 5.0 10.0 0.00 0.00 0.00 64 1013.3
20260904124704 59 338 6.0 11.0 0.00 0.00 0.00 64 1013.3
20260904124204 59 339 7.0 13.0 0.00 0.00 0.00 63 1013.2
20260904123204 59 329 9.0 14.0 0.00 0.00 0.00 63 1013.1
20260904122704 59 335 10.0 16.0 0.00 0.00 0.00 64 1013.0
20260904122204 59 329 10.0 16.0 0.00 0.00 0.00 64 1013.0
20260904121704 59 336 12.0 16.0 0.00 0.00 0.00 65 1012.9
20260904120204 59 321 11.0 15.0 0.00 0.00 0.00 65 1012.9
20260904115204 60 323 11.0 15.0 0.00 0.00 0.00 64 1013.0
20260904114704 60 317 11.0 15.0 0.00 0.00 0.00 64 1013.0
20260904114204 60 327 9.0 14.0 0.00 0.00 0.00 63 1013.0
20260904113705 60 324 9.0 14.0 0.00 0.00 0.00 63 1013.1
20260904113205 60 313 9.0 14.0 0.00 0.00 0.00 62 1013.1
20260904112704 60 318 10.0 14.0 0.00 0.00 0.00 63 1013.1
20260904111204 59 313 8.0 13.0 0.00 0.00 0.00 64 1013.1
20260904110704 59 323 8.0 12.0 0.00 0.00 0.00 64 1013.1
20260904110204 59 313 8.0 12.0 0.00 0.00 0.00 64 1013.1
20260904105704 59 323 7.0 12.0 0.00 0.00 0.00 63 1013.1
20260904104704 59 322 9.0 13.0 0.00 0.00 0.00 63 1013.0
20260904104204 59 327 9.0 13.0 0.00 0.00 0.00 63 1012.9
20260904103704 59 317 9.0 12.0 0.00 0.00 0.00 63 1012.8
20260904103205 59 327 9.0 12.0 0.00 0.00 0.00 63 1012.9
20260904102704 59 317 8.0 12.0 0.00 0.00 0.00 64 1012.9
20260904102204 58 320 6.0 10.0 0.00 0.00 0.00 65 1012.9
20260904101705 58 334 4.0 6.0 0.00 0.00 0.00 65 1012.8
20260904101204 58 338 3.0 6.0 0.00 0.00 0.00 65 1012.9
20260904100704 57 338 3.0 4.0 0.00 0.00 0.00 65 1012.9
20260904100204 57 338 3.0 4.0 0.00 0.00 0.00 65 1012.8
20260904095704 57 338 3.0 4.0 0.00 0.00 0.00 66 1012.9
20260904095204 57 338 3.0 4.0 0.00 0.00 0.00 67 1012.9
20260904094704 57 338 3.0 4.0 0.00 0.00 0.00 68 1012.9
20260904094204 57 338 2.0 4.0 0.00 0.00 0.00 67 1012.9
20260904093704 57 338 2.0 4.0 0.00 0.00 0.00 65 1013.0
20260904093204 57 338 2.0 4.0 0.00 0.00 0.00 65 1013.1
20260904092704 58 338 2.0 3.0 0.00 0.00 0.00 64 1013.0
20260904092204 58 338 1.0 3.0 0.00 0.00 0.00 64 1013.0
20260904091704 58 338 2.0 3.0 0.00 0.00 0.00 64 1013.0